Regional Weather Roundup
Issued by NWS

Home | Current Version | Previous Version | Text Only | Print | Product List | Glossary On
Versions: 1 2 3 4 5 6 7 8 9 10 11 12 13 14 15 16 17 18 19 20 21 22 23 24 25 26 27 28 29 30 31 32 33 34 35 36 37 38 39 40 41 42 43 44 45 46 47 48 49 50
000
ASUS44 KEWX 240502
RWRTX
SOUTH TEXAS REGIONAL WEATHER ROUNDUP
NATIONAL WEATHER SERVICE AUSTIN/SAN ANTONIO TX
1200 AM CDT THU JUL 24 2014

NOTE: "FAIR" INDICATED FEW OR NO CLOUDS BELOW 12,000 FEET WITH NO
SIGNIFICANT WEATHER AND/OR OBSTRUCTIONS TO VISIBILITY.

* - THESE STATIONS ARE NOT NWS OR FAA STATIONS...AND ARE NOT SUBJECT
    TO NWS AND FAA QUALITY CONTROL.

TXZ171-172-183>190-240600-
TEXAS HILL COUNTRY AND EDWARDS PLATEAU

CITY           SKY/WX    TMP DP  RH WIND       PRES   REMARKS
JUNCTION       MOCLDY    84  65  52 E9        30.10R
*LLANO         MOCLDY    81  66  61 E6        30.11R
BURNET         MOCLDY    82  66  58 E6        30.09F
*HORSESHOE BAY MOCLDY    83  65  55 E8        30.08S
*KERRVILLE     MOCLDY    82  65  56 E6        30.10R
*FREDERICKSBRG MOCLDY    82  64  55 E8        30.10S
*ROCKSPRINGS   MOCLDY    82  64  54 CALM      30.14R
*BOERNE STAGE  PTCLDY    81  64  57 E5        30.09R
*CASTROVILLE   MOCLDY    87  68  53 E9        30.04R HX  90
HONDO          MOCLDY    82  70  66 NE7       30.05R
*UVALDE        MOCLDY    81  69  66 NE5       30.02F
DEL RIO        MOCLDY    89  63  41 E6        30.00R HX  90
LAUGHLIN AFB   NOT AVBL
CARRIZO SPRGS  PTCLDY    81  66  61 SE5       29.97F
$$

TXZ173-191>194-202-209-217>225-228-240600-
CENTRAL AND SOUTH CENTRAL TEXAS

CITY           SKY/WX    TMP DP  RH WIND       PRES   REMARKS
GEORGETOWN     MOCLDY    81  70  69 CALM      30.05F
AUSTIN/BERGSTM MOCLDY    82  69  64 E6        30.03F
AUSTIN/MABRY   MOCLDY    83  68  60 VRB6      30.05F
*AUSTIN/EXEC   MOCLDY    79  68  69 CALM      30.04F
*LAGO VISTA    MOCLDY    82  67  59 E7        30.08F
SAN MARCOS     MOCLDY    81  66  61 E7        30.07R
NEW BRAUNFELS  PTCLDY    84  69  60 NE9       30.04R
RANDOLPH AFB   PTCLDY    83  71  68 E6        30.05R
PT SAN ANTONIO PTCLDY    86  72  61 SE10      30.02R HX  92
SAN ANTONIO    PTCLDY    85  73  67 E8        30.05R HX  91
STINSON FIELD  MOCLDY    85  72  65 SE8       30.01R HX  91
*PLEASANTON    MOCLDY    83  67  58 E6        30.02R
*LA GRANGE     MOCLDY    84  73  70 CALM      30.01F HX  91
*GIDDINGS      MOCLDY    81  69  67 CALM      30.05F
*GONZALES      MOCLDY    85  74  68 E7        30.03R HX  92
$$

TXZ163>164-176>182-195>201-210>213-226-227-235-240600-
SOUTHEAST TEXAS

CITY           SKY/WX    TMP DP  RH WIND       PRES   REMARKS
COLLEGE STN    MOCLDY    79  65  62 E7        30.01F
*BRYAN         MOCLDY    76  66  71 CALM      30.00F
*CALDWELL      MOCLDY    81  72  74 NE10      30.06F
*CROCKETT      MOCLDY    77  70  78 S7        29.97F
*BRENHAM       MOCLDY    82  70  66 NE7       30.03F
HUNTSVILLE     MOCLDY    77  65  66 SE3       29.99F
CONROE         MOCLDY    79  67  66 N6        30.02F
HOUSTON BUSH   CLOUDY    78  72  81 E7        30.00F THUNDER
HOUSTON HOBBY  TSTM      83  73  72 N13       30.01R
*HOUSTON SW AP CLOUDY    78  76  95 CALM      30.01F
PEARLAND       CLOUDY    81  74  79 S3        30.00F
HOUSTON HOOKS  CLOUDY    83  74  74 NE7       30.02S
ELLINGTON FLD  NOT AVBL
SUGAR LAND     CLOUDY    80  76  87 SW3       30.01S
*HOUSTON EXEC  CLOUDY    81  77  89 N12       30.03R
*CLEVELAND MUN CLOUDY    80  72  75 N3        30.04R
*WHARTON       MOCLDY    77  75  93 CALM      30.03S
$$

TXZ214>216-236>238-240600-
THE UPPER TEXAS COAST

CITY           SKY/WX    TMP DP  RH WIND       PRES   REMARKS
*ORANGE        CLOUDY    75  75 100 CALM      30.03S
PORT ARTHUR    CLOUDY    74  72  93 NE6       30.02F
GALVESTON      CLOUDY    83  75  77 SW5       30.00F HX  90
ANGLETON       MOCLDY    77  75  93 CALM      30.00F
*BAY CITY      MOCLDY    79  79 100 S3        30.00F
PALACIOS       MOCLDY    81  75  82 SE3       30.00F
$$

TXZ229>234-239>247-240600-
TEXAS COASTAL BEND AND RIO GRANDE PLAINS

CITY           SKY/WX    TMP DP  RH WIND       PRES   REMARKS
VICTORIA       MOCLDY    80  75  84 SE5       30.02R
*BEEVILLE      MOCLDY    81  74  79 SE5       30.01S
ROCKPORT       PTCLDY    83  77  82 SE8       30.00R HX  92
*PORT ARANSAS  MOCLDY    81  78  90 SE7       30.00S
*PORT LAVACA   MOCLDY    79  75  88 S3        30.01F
*INGLESIDE     PTCLDY    82  76  81 SE6       30.00S HX  90
CORPUS CHRISTI MOCLDY    81  75  82 SE8       30.00S
CORPUS NAS     PTCLDY    82  78  88 SE10      30.00S HX  91
*ROBSTOWN      PTCLDY    82  76  82 SE5       30.00S
ALICE          PTCLDY    79  74  84 SE12      29.99F
KINGSVILLE NAS CLOUDY    82  79  90 S8        30.00S HX  92
COTULLA        PTCLDY    86  68  54 S8        29.98F
*FAITH RANCH   PTCLDY    84  66  54 NE7       30.00R
LAREDO         PTCLDY    89  71  55 SE10      30.02R HX  95
$$

TXZ248>255-240600-
DEEP SOUTH TEXAS

CITY           SKY/WX    TMP DP  RH WIND       PRES   REMARKS
BROWNSVILLE    MOCLDY    80  75  84 S6        30.01F
PORT ISABEL    MOCLDY    83  74  74 S9        30.00F
*SOUTH PADRE   MOCLDY    82  77  83 S7        30.00F HX  91
HARLINGEN      PTCLDY    79  73  82 S7        30.00F
*HEBBRONVILLE  PTCLDY    83  69  63 SE9       30.03S
MCALLEN        PTCLDY    83  75  77 SE12      30.01F HX  90
*WESLACO       PTCLDY    82  73  75 S10       30.00F
FALFURRIAS     PTCLDY    75  73  93 SE6       29.99S
EDINBURG       MOCLDY    82  71  69 SE6       30.01F
*ZAPATA        NOT AVBL
$$

TXZ213>215-236>238-242>244-246-247-251-254-255-240600-
CMAN STATIONS

STATION/POSITION TIME  TEMP    WIND        PRES    WAVE
                       AIR SEA DIR/SP/G            HT/PER
                 (UTC) (F)     (DEG/KT/KT) (MB)    (FT/S)
SABINE PASS      0400   75 88  360/ 22/ 29 1017.3
SEA RIM ST PARK  0400   76      70/ 14/ 17 1017.1
NORTH JETTY/GLS  0400   85 91  240/  4/  5   N/A
EAGLE POINT      0400   84 91  270/  2/  4 1016.0
MORGANS POINT    0400   85 91  230/  4/  5 1015.6
MISSION/ARANSAS  0400   83     140/ 11     1017.0
PORT O`CONNOR    0400          120/  8/ 10   N/A
PORT ARANSAS     0400   82 88  130/ 11/ 13 1016.2
MALAQUITE BEACH  0400   82 84  130/ 10/ 12 1015.0
BAFFIN BAY       0400   82 85  140/ 12/ 15 1015.7
PORT ISABEL      0400   83 83  140/  7/  9 1016.6
$$

GMZ080-GMZ150>470-240600-
OFFSHORE BUOY REPORTS

STATION/POSITION TIME  TEMP    WIND        PRES    WAVE
                       AIR SEA DIR/SP/G            HT/PER
                 (UTC) (F)     (DEG/KT/KT) (MB)    (FT/S)
90 E PT ARANSAS  0500   83 85  130/  6/  8 1016.5    1/ 5
35 NE PT MANSFLD 0400   83 82  130/ 10/ 12 1015.9    1/ 5
200 E PT ISABEL  0400   85 86   90/  4/  4 1016.8    1/ 5
$$



USA.gov is the U.S. government's official web portal to all federal, state and local government web resources and services.